Regional Weather Roundup
Issued by NWS

Home | Current Version | Previous Version | Text Only | Print | Product List | Glossary Off
Versions: 1 2 3 4 5 6 7 8 9 10 11 12 13 14 15 16 17 18 19 20 21 22 23 24 25 26 27 28 29 30 31 32 33 34 35 36 37 38 39 40 41 42 43 44 45 46 47 48 49 50

000
ASUS45 KBOU 201107
RWRCO

WEATHER ROUNDUP FOR COLORADO
NATIONAL WEATHER SERVICE DENVER/BOULDER CO
400 AM MST SAT DEC 20 2014

NOTE: "FAIR" INDICATES FEW OR NO CLOUDS BELOW 12000 FEET WITH NO
SIGNIFICANT WEATHER AND/OR OBSTRUCTIONS TO VISIBILITY.

COZ001>005-013-030-031-201200-
...NORTHWEST COLORADO...

CITY           SKY/WX    TMP DP  RH WIND       PRES   REMARKS
CRAIG          CLOUDY    23  18  81 E5        30.15F WCI  17
HAYDEN         CLOUDY    21  16  79 E10       30.14F WCI  10
MEEKER         CLOUDY    20  14  77 NE3       30.14F
MOUNT WERNER   NOT AVBL
STEAMBOAT SPGS CLOUDY    17  15  90 CALM      30.15F
WALDEN         CLOUDY    19  14  79 SE8       30.08F WCI   9
$$

COZ006>008-011-201200-
...WEST CENTRAL VALLEYS...

CITY           SKY/WX    TMP DP  RH WIND       PRES   REMARKS
GRAND JUNCTION CLOUDY    27  24  89 E6        30.19F WCI  20
MONTROSE       MOCLDY    23  18  81 W7        30.23R WCI  15
EAGLE          CLOUDY    18  16  93 SE3       30.23F
RIFLE          MOCLDY    25  21  85 NE3       30.21F
DELTA          MOCLDY    26  22  83 CALM      30.22F
NUCLA          MOCLDY    25  21  86 CALM      30.23F
$$

COZ017>023-064>068-201200-
...SOUTHWEST COLORADO...

CITY           SKY/WX    TMP DP  RH WIND       PRES   REMARKS
DURANGO        MOCLDY    21  19  92 E5        30.17S WCI  15
CORTEZ         CLEAR     24  20  84 E3        30.19S
PAGOSA SPRINGS MOCLDY    16  15  96 NE3       30.16F
TELLURIDE      MOCLDY    19  11  70 SE7       30.16F WCI  10
WOLF CREEK PAS MOCLDY    19   5  53 MISG      30.14S
$$

COZ009-010-012-014-032>034-037-058>063-201200-
...CENTRAL COLORADO...

CITY           SKY/WX    TMP DP  RH WIND       PRES   REMARKS
ASPEN          PTCLDY    12   7  80 CALM      30.15S
BUENA VISTA    PTCLDY    10   4  77 CALM      30.13F
COPPER MTN     CLOUDY    19  12  73 W15       30.10S WCI   5
BERTHOUD PASS  CLOUDY    12   9  85 MISG      30.05S
COTTONWOOD PAS PTCLDY    27  10  50 NW6       30.10F WCI  20
GUNNISON       MOCLDY     5  -2  72 CALM      30.26S
KREMMLING      CLOUDY    12   9  85 CALM      30.19S
LEADVILLE      MOCLDY    12   6  77 E6        30.09F WCI   3
MONARCH PASS     N/A     10   9  92 MISG      30.21F
SALIDA         PTCLDY    24  10  54 NW12      30.19F WCI  13
SUNLIGHT       CLOUDY   N/A N/A N/A CALM      30.15S
WILKERSON PASS PTCLDY    19  10  68 W13G20    30.10F WCI   7
$$

COZ069>075-201200-
...SAN LUIS VALLEY/SANGRE DE CRISTO MOUNTAINS...

CITY           SKY/WX    TMP DP  RH WIND       PRES   REMARKS
ALAMOSA        MOCLDY     6   2  83 CALM      30.17S
LA VETA PASS   PTCLDY    14  10  85 MISG      30.08S
SAGUACHE       MOCLDY    18   9  68 NW13      30.16F WCI   4
$$

COZ035-036-038>040-201200-
...NORTHERN COLORADO FRONT RANGE...

CITY           SKY/WX    TMP DP  RH WIND       PRES   REMARKS
DENVER INTL AP PTCLDY    30  16  56 S13       29.98F WCI  20
DMNS CITY PARK   N/A     30  15  54 S7        29.98F WCI  23
AURORA         PTCLDY    31  15  53 S12       29.99F WCI  21
FRONT RANGE AP CLEAR     28  21  74 S8        29.99F WCI  20
ERIE MUNI ARPT   N/A     19  16  88 CALM      29.99S
BOULDER MUN AP PTCLDY    28  18  64 CALM      29.97F
CENTENNIAL     PTCLDY    30  16  56 S6        29.99F WCI  24
BROOMFIELD     PTCLDY    34  18  51 W7        29.98F WCI  28
FORT COLLINS   PTCLDY    21  16  79 CALM      30.00F
LONGMONT       PTCLDY    23  18  78 N5        30.00F WCI  17
$$

COZ041-046-047-076>085-087-088-201200-
...PIKES PEAK/PALMER DIVIDE AND SOUTHERN FOOTHILLS...

CITY           SKY/WX    TMP DP  RH WIND       PRES   REMARKS
COLO. SPRINGS  PTCLDY    23  16  74 CALM      30.03S
A. F. ACADEMY  PTCLDY    19  13  76 N9        30.02F WCI   8
ELLICOTT       NOT AVBL
FALCON         CLEAR     28  14  55 NW9       30.02F WCI  19
FORT CARSON    CLEAR     25  17  71 NW6       30.02S WCI  18
LIMON          PTCLDY    14  12  92 N10       30.02S WCI   1
MONUMENT HILL  CLEAR     28  14  54 SW7       30.00F WCI  21
TRINIDAD       PTCLDY    25  14  63 W9        30.04S WCI  15
$$

COZ042>045-048>051-090-091-201200-
...NORTHEAST COLORADO...

CITY           SKY/WX    TMP DP  RH WIND       PRES   REMARKS
GREELEY ARPT   PTCLDY    16   5  62 NW5       29.99S WCI   9
AKRON          PTCLDY    26  19  74 SW10      29.99S WCI  16
BURLINGTON     CLEAR     26  22  84 W8        30.01F WCI  18
WRAY           CLEAR     23  20  89 SW5       30.01  WCI  17
STERLING       PTCLDY    14  10  85 S6        30.00S WCI   5
HOLYOKE        CLEAR     21  18  86 W9        30.00F WCI  11
FORT MORGAN    MOCLDY    16  14  90 W7        29.99F WCI   6
$$

COZ086-089-092>099-201200-
...SOUTHEAST COLORADO...

CITY           SKY/WX    TMP DP  RH WIND       PRES   REMARKS
PUEBLO         PTCLDY    19  15  84 CALM      30.04R
LA JUNTA       PTCLDY    22  19  89 W6        30.04R WCI  14
LAMAR          MOCLDY    20  18  92 SW5       30.03S WCI  13
SPRINGFIELD      N/A     25  21  85 SW5       30.03R WCI  19
$$


USA.gov is the U.S. government's official web portal to all federal, state and local government web resources and services.